IRIDIUM 86 [P]

Last updated on Tue Aug 28 2018 14:42:46 GMT+0000 (Coordinated Universal Time)

1 25528U 98066B 18239.93445311 .00501208 00000-0 78294-1 0 9991 2 25528 86.3963 167.1438 0117950 170.1774 190.6716 14.65885081 41965

Satellite not in orbit